Location: Downe
(51.3167°N, 0.0500°E)
Time: 19:23:41
(UTC+00:00)

SAR-Lupe-2 - Pass Details

Date: 17 November 2019
Orbit: 480 x 485 km, 98.2° (Epoch: 29 November)

Event Time Altitude Azimuth Distance (km) Brightness Sun altitude
Rises 06:17:15 0° 156° (SSE) 2,533 7.9 -9.8°
Reaches altitude 10° 06:19:18 10° 153° (SSE) 1,659 7.0 -9.4°
Maximum altitude 06:22:49 63° 72° (ENE) 545 4.0 -8.9°
Drops below altitude 10° 06:26:23 10° 351° (N) 1,676 6.0 -8.4°
Sets 06:28:28 0° 348° (NNW) 2,562 6.9 -8.1°
